Weather History for Telluride, CO

Change the Weather History Date:

Wednesday, December 26, 2012

  Actual Average Record
Temperature  
Mean Temperature 22 °F -  
Max Temperature 32 °F 33 °F 48 °F (2004)
Min Temperature 12 °F 13 °F -2 °F (1997)
Degree Days  
Heating Degree Days 43    
Moisture  
Dew Point 13 °F    
Average Humidity 67    
Maximum Humidity 93    
Minimum Humidity 43    
Precipitation  
Precipitation 0.00 in - - ()
Sea Level Pressure  
Sea Level Pressure 29.75 in    
Wind  
Wind Speed 3 mph (SSE)    
Max Wind Speed 15 mph    
Max Gust Speed 25 mph    
Visibility 9 miles    
Events Snow    
Averages and records for this station are not official NWS values.
T = Trace of Precipitation, MM = Missing Value Source: NWS Daily Summary

Daily Weather History Graph

Daily Weather History Graph

Search for Another Location

Airport:

Trip Planner

Search our weather history database for the weather conditions in past years. The results will help you decide how hot, cold, wet, or windy it might be!

Date:

Astronomy

Dec. 26, 2012 Rise Set
Actual Time 7:26 AM MST 4:58 PM MST
Civil Twilight 6:56 AM MST 5:28 PM MST
Nautical Twilight 6:23 AM MST 6:01 PM MST
Astronomical Twilight 5:51 AM MST 6:33 PM MST
Moon 3:54 PM MST (12/26) 5:52 AM MST (12/26)
Length of Visible Light 10h 31m
Length of Day
9h 32m
Waxing Gibbous, 98% of the Moon is Illuminated
Dec 26
Waxing Gibbous
Dec 28
Full
Jan 4
Last Quarter
Jan 11
New
Jan 18
First Quarter

Hourly Weather History & Observations

Time (MST) Temp. Windchill Dew Point Humidity Pressure Visibility Wind Dir Wind Speed Gust Speed Precip Events Conditions
12:15 AM 14.0 °F - 10.4 °F 86% 29.93 in 10.0 mi Calm Calm - N/A   Clear
12:35 AM 14.0 °F - 10.4 °F 86% 29.92 in 10.0 mi Calm Calm - N/A   Clear
12:55 AM 14.0 °F 3.9 °F 10.4 °F 86% 29.93 in 10.0 mi West 6.9 mph - N/A   Clear
1:15 AM 14.0 °F - 10.4 °F 86% 29.93 in 10.0 mi Calm Calm - N/A   Scattered Clouds
1:35 AM 14.0 °F 6.5 °F 10.4 °F 86% 29.93 in 10.0 mi ESE 4.6 mph - N/A   Scattered Clouds
2:15 AM 14.0 °F 6.5 °F 10.4 °F 86% 29.90 in 10.0 mi ESE 4.6 mph - N/A   Overcast
2:35 AM 14.0 °F - 10.4 °F 86% 29.90 in 10.0 mi Calm Calm - N/A   Overcast
2:55 AM 12.2 °F - 10.4 °F 92% 29.89 in 10.0 mi Calm Calm - N/A   Overcast
3:15 AM 14.0 °F - 10.4 °F 86% 29.88 in 10.0 mi Calm Calm - N/A   Mostly Cloudy
3:35 AM 17.6 °F 10.7 °F 10.4 °F 73% 29.87 in 10.0 mi SE 4.6 mph - N/A   Overcast
3:55 AM 19.4 °F 14.3 °F 10.4 °F 68% 29.87 in 10.0 mi East 3.5 mph - N/A   Overcast
4:15 AM 19.4 °F - 8.6 °F 63% 29.87 in 10.0 mi Calm Calm - N/A   Overcast
4:35 AM 21.2 °F 16.4 °F 8.6 °F 58% 29.86 in 10.0 mi SE 3.5 mph - N/A   Overcast
4:55 AM 21.2 °F - 8.6 °F 58% 29.85 in 10.0 mi Calm Calm - N/A   Overcast
5:15 AM 21.2 °F - 8.6 °F 58% 29.85 in 10.0 mi Calm Calm - N/A   Overcast
5:35 AM 21.2 °F - 8.6 °F 58% 29.85 in 10.0 mi Calm Calm - N/A   Overcast
5:55 AM 21.2 °F - 8.6 °F 58% 29.85 in 10.0 mi Calm Calm - N/A   Overcast
6:15 AM 23.0 °F - 14.0 °F 68% 29.86 in 4.0 mi Calm Calm - N/A Snow Light Snow
6:35 AM 21.2 °F - 19.4 °F 93% 29.86 in 1.8 mi Calm Calm - N/A Snow Light Snow
6:55 AM 23.0 °F - 19.4 °F 86% 29.85 in 3.0 mi Calm Calm - N/A Snow Light Snow
7:15 AM 23.0 °F 18.4 °F 19.4 °F 86% 29.83 in 10.0 mi East 3.5 mph - N/A   Overcast
7:35 AM 23.0 °F 18.4 °F 19.4 °F 86% 29.82 in 10.0 mi ENE 3.5 mph - N/A   Overcast
7:55 AM 26.6 °F 20.0 °F 17.6 °F 69% 29.81 in 10.0 mi East 5.8 mph - N/A   Overcast
8:15 AM 26.6 °F - 17.6 °F 69% 29.80 in 10.0 mi Calm Calm - N/A   Overcast
8:35 AM 26.6 °F 19.1 °F 17.6 °F 69% 29.80 in 10.0 mi SE 6.9 mph 10.4 mph N/A   Overcast
8:55 AM 26.6 °F - 19.4 °F 74% 29.79 in 10.0 mi Calm Calm - N/A   Overcast
9:15 AM 28.4 °F - 17.6 °F 64% 29.79 in 10.0 mi Calm Calm - N/A   Overcast
9:35 AM 28.4 °F - 19.4 °F 69% 29.79 in 10.0 mi Calm Calm - N/A   Overcast
9:55 AM 30.2 °F 22.6 °F 12.2 °F 47% 29.79 in 10.0 mi SE 8.1 mph - N/A   Overcast
10:15 AM 30.2 °F 25.4 °F 12.2 °F 47% 29.78 in 10.0 mi East 4.6 mph - N/A   Overcast
10:35 AM 30.2 °F - 14.0 °F 51% 29.78 in 10.0 mi Calm Calm - N/A   Overcast
10:55 AM 32.0 °F 23.0 °F 12.2 °F 44% 29.76 in 10.0 mi ESE 11.5 mph 18.4 mph N/A   Overcast
11:15 AM 32.0 °F 27.5 °F 14.0 °F 48% 29.75 in 10.0 mi SSE 4.6 mph 16.1 mph N/A   Overcast
11:35 AM 32.0 °F 25.6 °F 14.0 °F 48% 29.74 in 10.0 mi ESE 6.9 mph - N/A   Overcast
11:55 AM 32.0 °F 27.5 °F 12.2 °F 44% 29.72 in 10.0 mi SE 4.6 mph - N/A   Mostly Cloudy
12:15 PM 32.0 °F 23.6 °F 14.0 °F 48% 29.72 in 10.0 mi SE 10.4 mph 19.6 mph N/A   Overcast
12:35 PM 32.0 °F 22.1 °F 17.6 °F 55% 29.70 in 10.0 mi ESE 13.8 mph 18.4 mph N/A   Overcast
12:55 PM 30.2 °F 26.7 °F 17.6 °F 60% 29.71 in 10.0 mi SW 3.5 mph - N/A   Overcast
1:15 PM 32.0 °F 25.6 °F 14.0 °F 48% 29.70 in 10.0 mi South 6.9 mph - N/A   Overcast
1:35 PM 30.2 °F 24.3 °F 12.2 °F 47% 29.69 in 10.0 mi SSE 5.8 mph - N/A   Overcast
1:55 PM 30.2 °F 25.4 °F 10.4 °F 44% 29.68 in 10.0 mi ESE 4.6 mph - N/A   Overcast
2:15 PM 28.4 °F 20.4 °F 8.6 °F 43% 29.68 in 10.0 mi SE 8.1 mph 23.0 mph N/A   Overcast
2:35 PM 28.4 °F 20.4 °F 8.6 °F 43% 29.67 in 10.0 mi SSE 8.1 mph 21.9 mph N/A   Overcast
2:55 PM 26.6 °F 18.2 °F 10.4 °F 51% 29.67 in 10.0 mi South 8.1 mph 25.3 mph N/A   Overcast
3:15 PM 26.6 °F 14.7 °F 10.4 °F 51% 29.66 in 10.0 mi South 15.0 mph 24.2 mph N/A   Overcast
3:35 PM 24.8 °F 13.4 °F 12.2 °F 59% 29.66 in 10.0 mi SSE 12.7 mph 18.4 mph N/A   Overcast
3:55 PM 24.8 °F 20.5 °F 12.2 °F 59% 29.66 in 10.0 mi South 3.5 mph - N/A   Overcast
4:15 PM 23.0 °F 12.4 °F 14.0 °F 68% 29.66 in 10.0 mi SE 10.4 mph 17.3 mph N/A   Overcast
4:35 PM 21.2 °F 11.7 °F 15.8 °F 80% 29.66 in 2.5 mi SE 8.1 mph 19.6 mph N/A Snow Light Snow
4:55 PM 21.2 °F 9.5 °F 17.6 °F 86% 29.65 in 3.0 mi SSE 11.5 mph 19.6 mph N/A Snow Light Snow
5:15 PM 21.2 °F 10.9 °F 17.6 °F 86% 29.65 in 10.0 mi ESE 9.2 mph - N/A   Overcast
5:35 PM 21.2 °F - 15.8 °F 80% 29.66 in 10.0 mi Calm Calm - N/A   Overcast
6:15 PM 23.0 °F 13.1 °F 14.0 °F 68% 29.67 in 10.0 mi SW 9.2 mph - N/A   Overcast
6:35 PM 23.0 °F 12.4 °F 12.2 °F 63% 29.67 in 10.0 mi SW 10.4 mph 19.6 mph N/A   Overcast
6:55 PM 23.0 °F 13.9 °F 10.4 °F 59% 29.66 in 10.0 mi WSW 8.1 mph 19.6 mph N/A   Mostly Cloudy
7:15 PM 23.0 °F 13.9 °F 12.2 °F 63% 29.66 in 10.0 mi WSW 8.1 mph - N/A   Mostly Cloudy
7:35 PM 23.0 °F 17.0 °F 12.2 °F 63% 29.66 in 10.0 mi WSW 4.6 mph - N/A   Overcast
7:55 PM 23.0 °F 15.8 °F 14.0 °F 68% 29.66 in 10.0 mi West 5.8 mph - N/A   Overcast
8:15 PM 23.0 °F 13.1 °F 12.2 °F 63% 29.65 in 10.0 mi SSW 9.2 mph - N/A   Overcast
8:35 PM 23.0 °F 13.9 °F 12.2 °F 63% 29.64 in 10.0 mi South 8.1 mph 18.4 mph N/A   Overcast
8:55 PM 21.2 °F 16.4 °F 14.0 °F 74% 29.64 in 10.0 mi SSE 3.5 mph - N/A   Overcast
9:15 PM 21.2 °F 13.6 °F 14.0 °F 74% 29.64 in 7.0 mi West 5.8 mph - N/A Snow Light Snow
9:35 PM 21.2 °F 12.6 °F 12.2 °F 68% 29.64 in 10.0 mi WSW 6.9 mph - N/A Snow Light Snow
9:55 PM 21.2 °F 14.9 °F 14.0 °F 74% 29.64 in 10.0 mi North 4.6 mph - N/A   Mostly Cloudy
10:15 PM 21.2 °F - 14.0 °F 74% 29.64 in 10.0 mi Calm Calm - N/A   Overcast
10:35 PM 21.2 °F - 14.0 °F 74% 29.64 in 10.0 mi Calm Calm - N/A   Overcast
10:55 PM 21.2 °F - 14.0 °F 74% 29.64 in 10.0 mi Calm Calm - N/A   Overcast
11:15 PM 21.2 °F - 14.0 °F 74% 29.64 in 10.0 mi Calm Calm - N/A   Overcast
11:35 PM 19.4 °F - 14.0 °F 80% 29.64 in 7.0 mi Calm Calm - N/A   Overcast
11:55 PM 19.4 °F 12.8 °F 14.0 °F 80% 29.64 in 10.0 mi SSW 4.6 mph - N/A   Overcast